Location: Brompton
(51.4000°N, 0.5333°E)
Time: 12:03:45
(UTC+00:00)

Cosmos 1898 Rocket - Pass Details

Date: 26 September 2021
Orbit: 752 x 784 km, 74.0° (Epoch: 17 October)

Event Time Altitude Azimuth Distance (km) Brightness Sun altitude
Exits shadow 20:50:27 58° 21° (NNE) 897 3.8 -27.7°
Drops below altitude 10° 20:54:39 10° 25° (NNE) 2,322 6.1 -28.3°
Sets 20:57:03 0° 25° (NNE) 3,258 6.9 -28.5°
